Dewpoint
67 67 66 65 66 65 65 63 63 62 63 63 62 62 62 61 61 61 60 60 61 64 67 65 64 64 64 65 65 65 66 65 64 64 64 65 65 65 64 64 65 64 62 62 62 62 61 62 62 62 62 62 61 61 61 61 61 60 60 61 61 60 60 60 60 60 60 60 59 59 59 59 59 59 59 59 59 59 59 58 59 58 58 58 59
67 67 66 66 67 66 65 63 63 61 62 62 63 62 61 61 61 60 59 60 60 65 65 63 63 65 64 64 65 65 65 65 65 64 65 65 66 65 65 66 66 65 64 63 62 62 62 62 62 61 61 61 61 61 61 61 60 60 61 61 61 61 61 60 60 61 61 61 60 60 60 60 60 60 59 59 59 59 59 59 59 59 58 58 58
67 67 67 66 66 66 65 65 65 63 63 64 64 64 63 62 62 61 64 63 62 64 63 63 63 65 64 65 65 65 64 65 64 66 66 66 66 65 64 64 65 66 66 65 63 62 62 62 61 62 61 62 62 61 61 62 62 61 60 61 61 61 60 60 60 60 60 60 60 60 60 60 60 60 59 59 59 59 59 59 59 59 59 58 58
67 66 66 65 66 66 65 65 65 65 65 66 66 65 64 64 66 67 65 65 65 65 64 63 63 65 65 65 65 65 65 65 65 65 66 66 66 65 65 64 65 64 64 65 64 62 62 63 62 63 62 62 62 62 62 62 61 60 61 61 61 60 60 60 60 60 60 60 60 60 60 60 60 60 60 60 60 60 59 59 59 59 59 59 58
66 66 66 66 66 67 65 65 65 66 66 66 66 67 66 65 66 65 64 63 64 65 64 64 63 64 65 66 65 65 65 64 64 64 65 65 65 66 65 65 65 66 65 63 65 64 63 62 62 63 62 62 62 62 62 62 61 61 62 62 61 61 62 61 61 61 60 60 60 60 60 61 61 60 59 59 60 60 60 60 59 59 59 59 59
65 65 65 65 65 65 66 65 66 66 66 65 66 66 66 64 64 64 66 64 65 65 64 63 63 64 65 64 63 64 65 65 65 65 64 64 65 65 65 64 64 63 63 63 65 64 65 64 64 64 63 63 62 62 62 62 62 62 62 62 61 62 62 62 62 62 62 61 61 60 60 61 61 60 60 60 60 60 60 60 59 59 59 59 59
66 65 64 66 65 66 65 65 66 66 66 65 67 65 67 66 64 64 64 64 64 65 64 64 63 63 63 64 63 64 63 63 64 64 65 64 64 64 65 64 63 63 64 64 68 67 66 66 65 65 65 64 64 63 62 62 63 63 63 62 62 62 62 63 63 63 63 63 63 63 62 61 61 61 60 60 60 59 60 60 60 59 59 59 59
66 66 65 65 64 65 66 67 66 65 65 66 66 66 66 65 65 64 63 63 63 64 64 64 63 63 64 64 64 63 63 63 64 64 64 64 64 64 64 64 65 64 65 64 64 66 66 66 66 65 65 65 65 65 64 63 63 63 63 63 62 63 63 63 63 63 63 63 63 63 62 63 62 61 61 61 61 60 60 60 60 60 59 59 59
66 66 66 65 66 65 65 67 65 65 65 66 66 65 65 64 65 65 64 63 63 63 63 63 63 64 63 64 63 63 62 62 64 64 64 63 63 64 64 65 65 66 63 63 64 65 67 67 67 67 66 65 65 65 65 65 64 64 64 63 63 63 63 63 63 63 64 63 63 63 63 63 64 63 62 61 61 61 61 61 60 60 60 59 59
66 66 65 66 66 65 65 66 66 66 66 65 65 66 65 64 65 64 64 64 63 62 63 64 63 64 63 63 63 63 63 63 63 64 63 63 63 63 64 64 65 64 64 63 64 64 65 66 66 66 66 66 66 64 65 65 65 65 64 64 64 64 63 64 63 64 64 64 64 64 63 63 63 64 64 63 62 62 61 61 61 61 60 60 59
65 66 65 65 65 65 64 65 66 66 64 64 64 65 65 65 65 64 64 64 63 63 64 64 63 63 63 63 62 62 62 62 62 63 63 63 64 65 64 63 65 65 64 64 64 64 64 63 63 63 64 66 64 65 65 64 65 65 65 65 64 64 64 64 65 65 65 64 64 65 64 64 63 64 64 64 64 63 62 62 61 61 61 60 60
64 65 65 64 64 65 64 66 66 66 65 63 63 64 64 64 64 63 63 64 64 64 63 63 63 62 63 63 63 63 62 62 61 62 62 63 63 63 63 63 63 64 64 63 64 64 64 64 65 64 63 65 66 66 66 66 66 65 65 64 65 64 64 65 65 65 65 64 64 64 64 64 64 64 64 64 64 64 63 62 63 62 62 61 60
66 66 65 66 64 65 64 65 66 65 65 64 64 65 64 64 64 63 62 62 62 63 63 63 62 61 61 61 61 63 63 61 61 62 62 62 62 62 62 63 63 64 63 63 64 64 64 64 64 63 62 63 64 66 66 65 66 65 65 65 65 66 66 67 66 65 65 65 64 65 64 64 64 64 64 64 64 63 63 63 63 62 62 61 60
66 66 66 65 65 64 65 64 65 65 65 65 64 65 64 64 63 62 62 62 61 63 63 62 58 58 58 59 60 61 62 62 62 63 63 62 62 62 62 63 63 63 63 63 62 63 63 64 64 63 63 63 63 63 64 64 65 65 65 65 66 66 66 66 65 65 65 64 64 64 64 63 63 63 63 63 62 63 63 63 63 63 62 61 60
67 66 66 66 65 65 65 65 65 65 64 64 64 63 63 63 63 61 61 62 63 63 62 61 59 59 59 58 57 57 58 59 61 62 62 61 61 62 62 63 63 62 63 62 62 62 64 63 63 63 62 63 63 63 63 64 65 65 65 64 65 65 65 65 65 65 64 63 63 63 63 63 62 62 62 61 61 64 64 64 64 63 62 61 61
65 65 65 65 64 64 65 65 65 65 65 64 63 63 63 63 63 62 62 61 61 62 64 62 61 59 56 55 56 56 55 56 58 60 61 62 62 62 62 62 63 63 62 62 62 62 63 64 63 63 63 63 63 62 63 63 65 65 64 64 64 64 64 64 63 63 62 62 62 63 62 62 62 62 61 61 63 64 64 64 64 63 63 62 62
65 64 64 63 65 65 65 65 65 65 65 64 63 63 63 63 63 62 61 60 60 60 61 62 60 60 58 55 54 53 53 55 58 58 60 60 62 61 61 62 62 62 61 61 62 62 63 63 63 63 63 63 63 62 62 62 62 64 63 64 64 64 63 62 62 62 62 61 60 61 61 61 60 60 60 61 62 62 63 64 63 63 62 62 61
64 63 64 64 66 65 65 65 65 65 64 64 64 63 63 63 63 63 62 61 61 61 60 62 61 62 61 58 56 53 55 56 56 54 59 60 60 60 61 61 61 61 61 61 61 62 62 62 62 63 63 62 61 60 60 60 61 59 59 59 61 62 62 62 62 62 62 62 61 61 61 60 59 59 59 59 59 61 61 61 61 61 61 60 60
64 64 64 65 65 65 65 65 65 64 65 64 63 63 62 62 63 63 62 62 61 60 61 61 61 61 62 62 61 59 58 56 54 56 55 58 60 60 60 61 61 62 62 61 61 62 61 61 61 62 62 60 58 57 57 58 59 59 59 58 57 55 56 59 61 61 62 61 62 61 60 59 58 58 58 58 58 59 59 59 58 58 57 58 58
65 64 64 65 65 65 65 65 65 64 65 64 63 63 63 62 63 62 62 62 62 61 61 62 60 60 61 60 61 60 59 59 58 57 56 55 57 61 61 59 60 60 61 61 60 60 60 60 60 60 59 57 56 55 55 54 54 55 55 56 55 55 55 54 55 56 58 59 60 60 60 59 58 58 57 57 57 57 56 56 56 56 57 58 58
63 63 63 64 65 65 65 65 64 64 64 64 64 64 63 62 62 63 62 62 62 62 62 61 60 60 60 59 60 59 59 58 58 57 55 55 56 57 57 58 59 60 60 60 59 59 59 60 60 59 58 57 56 55 54 53 54 54 56 55 55 55 55 54 53 52 53 58 59 60 59 59 58 58 57 57 57 56 56 56 56 56 56 56 57
64 63 63 64 64 64 64 64 64 63 63 63 63 63 63 63 62 63 63 63 63 63 61 61 61 61 60 60 59 58 58 58 58 58 57 56 56 56 56 57 56 57 59 59 58 58 58 59 59 58 57 56 55 53 53 53 53 54 55 55 55 55 55 54 52 53 54 56 60 60 59 59 59 58 57 56 56 56 56 56 56 56 57 57 56
63 62 63 63 63 63 63 63 63 63 62 61 61 62 63 63 63 63 63 63 63 62 62 61 61 61 61 60 59 59 58 57 58 56 56 55 56 56 56 57 56 56 57 59 56 53 54 55 54 53 53 53 53 52 52 53 55 55 56 55 55 55 54 52 51 52 54 57 58 59 59 59 59 59 58 58 57 56 56 56 56 55 55 56 55
63 62 62 62 63 63 63 62 63 62 62 61 61 63 63 63 63 63 63 63 63 63 62 62 61 60 60 59 59 60 59 58 58 58 56 56 56 56 56 56 56 56 56 58 54 50 48 48 49 50 50 51 51 52 53 53 54 56 54 55 54 54 54 54 52 51 51 53 55 57 58 58 58 57 56 55 56 57 57 58 58 56 55 55 54
62 61 62 62 62 62 62 62 62 62 62 62 62 63 63 63 63 63 63 62 62 62 62 61 61 61 61 61 61 61 60 59 59 58 58 57 56 56 56 55 55 55 55 56 51 47 45 45 45 47 48 50 51 51 52 52 52 56 54 54 54 53 54 55 54 52 51 51 53 55 55 54 54 53 53 53 53 55 55 55 52 51 53 55 53
61 61 63 62 62 62 62 62 62 62 62 62 62 63 63 63 63 62 62 62 62 62 62 61 62 62 62 61 60 60 60 60 59 60 58 56 56 55 55 55 55 54 54 54 47 44 45 41 42 44 46 47 49 51 51 51 52 54 53 52 52 52 52 53 53 51 50 49 50 53 54 54 53 53 54 54 54 52 51 50 50 50 50 51 53
61 62 61 62 62 62 61 62 61 61 61 62 63 63 63 63 62 62 62 62 62 61 61 62 61 62 61 61 61 60 60 61 61 60 59 57 56 55 54 53 51 51 52 50 45 45 42 38 38 41 44 47 49 50 50 51 52 54 53 50 49 50 50 50 52 51 48 47 47 48 49 50 50 51 51 52 50 50 51 51 51 49 49 50 52
62 61 61 61 61 61 62 61 61 61 61 61 62 62 62 62 63 62 62 63 62 61 61 62 62 61 61 61 61 61 61 62 62 60 59 59 59 56 54 52 50 48 49 46 44 43 38 34 38 41 44 46 48 50 51 51 51 53 51 47 47 47 48 48 49 51 50 48 47 46 47 47 48 49 50 51 51 52 51 51 51 50 49 51 51
62 61 61 61 60 61 60 61 60 60 60 61 61 62 62 61 61 62 61 62 62 62 61 61 60 61 61 61 61 61 61 61 61 61 61 60 60 60 56 52 50 48 46 43 43 40 34 35 37 40 43 46 47 49 50 49 51 50 47 46 45 46 49 49 48 48 48 47 47 47 47 48 49 50 52 52 52 52 52 51 51 51 51 51 51
61 61 61 60 60 63 60 60 60 61 60 60 60 61 61 61 62 61 62 62 62 62 62 62 62 62 61 61 61 60 61 61 61 60 61 59 60 60 59 56 51 47 45 42 42 39 34 38 38 39 42 44 47 49 48 48 52 49 45 45 45 45 48 48 47 46 46 47 46 47 47 49 50 52 51 51 52 51 50 51 51 51 52 51 50
60 61 60 59 61 60 59 59 60 59 59 59 60 60 60 61 61 61 61 61 62 62 62 62 62 62 61 61 60 60 61 61 61 61 60 61 60 60 59 58 56 50 45 43 38 40 34 37 40 40 41 42 44 45 46 47 51 48 45 45 43 46 48 47 47 47 46 47 46 45 48 49 50 51 51 51 50 50 50 50 51 51 51 52 51
60 59 58 59 60 59 59 59 59 58 59 58 59 59 60 61 61 61 61 61 61 61 62 62 63 62 61 61 61 61 60 60 60 60 60 60 60 59 58 58 57 56 45 41 38 37 38 37 40 40 40 41 41 40 41 43 48 51 43 44 42 48 45 43 47 47 47 46 46 46 49 50 50 51 51 50 49 49 49 49 50 51 52 50 50
59 58 58 58 59 58 58 58 58 58 58 56 58 58 60 60 60 60 61 61 60 60 61 61 61 62 62 62 61 61 61 60 59 59 60 60 59 58 58 57 57 55 45 41 38 38 41 40 41 40 39 39 37 37 37 39 43 47 46 43 44 43 40 40 42 46 46 46 45 45 45 47 46 49 49 49 49 50 49 48 49 49 50 48 48
59 58 57 58 58 58 58 57 58 58 56 57 58 56 57 56 56 59 60 59 59 59 59 59 59 60 60 61 60 61 61 60 59 59 60 60 59 58 58 57 55 55 52 42 38 38 35 40 42 40 39 38 36 36 36 38 40 44 45 43 44 40 36 39 38 41 45 45 44 43 44 46 45 45 46 46 47 46 48 47 47 47 49 46 46
58 58 57 57 57 56 57 56 56 55 56 56 56 58 56 57 56 57 57 56 56 57 56 57 57 58 59 59 59 60 61 59 59 59 60 59 58 58 57 56 54 55 49 37 40 39 35 38 41 40 39 38 38 36 36 37 39 42 43 44 43 40 37 38 38 36 42 44 44 43 43 44 45 43 44 47 46 44 45 46 45 45 46 45 44
57 58 57 57 56 56 54 55 54 53 54 54 55 57 56 56 55 56 56 57 56 55 55 55 56 57 58 59 59 59 59 58 58 58 58 59 59 58 56 55 55 55 47 39 38 38 36 38 39 39 39 38 41 37 37 39 40 41 41 43 42 40 36 37 38 37 39 43 44 43 43 43 45 43 42 44 44 44 44 44 45 44 44 45 44
57 57 57 56 55 55 54 55 52 53 52 53 54 56 55 56 56 55 55 55 55 55 56 55 58 58 59 59 59 59 58 58 57 57 58 57 58 56 55 55 54 53 53 42 40 37 37 38 40 40 40 38 40 37 39 39 40 41 41 42 41 39 36 36 38 39 42 43 43 43 43 42 43 43 41 42 43 43 43 44 44 44 44 45 44
57 56 56 55 55 54 54 52 51 50 50 52 53 54 55 55 55 54 54 55 55 53 52 55 56 58 59 58 58 59 58 57 56 57 57 57 58 56 55 53 52 51 48 43 42 40 38 38 39 41 40 39 40 39 39 39 40 40 39 39 41 39 38 38 39 38 40 40 41 41 43 42 42 42 42 42 42 42 43 44 44 45 44 44 43
54 54 55 54 54 52 53 52 51 50 49 49 49 51 52 54 54 54 54 54 54 53 50 54 56 58 59 59 58 58 58 57 58 58 57 56 57 56 54 54 53 49 46 44 43 41 41 41 42 41 39 41 40 40 39 39 39 39 39 40 40 40 42 41 42 41 41 42 42 41 40 40 41 40 41 42 42 43 44 43 44 45 44 44 43
53 53 52 52 54 53 50 50 49 48 46 46 46 46 49 52 55 53 53 53 54 53 54 55 57 58 59 58 58 57 58 59 59 58 57 56 56 55 54 54 53 49 45 45 44 43 42 43 41 43 39 40 42 42 41 39 40 40 40 41 40 40 41 44 43 42 41 42 41 39 40 41 40 42 42 43 43 43 44 44 45 44 45 44 42
55 54 53 52 53 52 50 49 48 47 46 45 44 45 46 49 52 54 54 53 53 51 51 55 58 59 59 59 58 58 58 56 52 52 52 55 57 53 53 55 51 48 46 46 45 44 44 44 43 45 42 41 43 42 42 41 41 40 42 43 41 41 41 44 44 42 40 39 40 38 38 39 38 39 39 40 41 43 44 44 44 45 44 43 42
53 52 53 54 52 49 48 46 45 44 43 43 42 42 43 47 51 52 53 53 53 53 51 54 57 58 59 58 59 59 54 51 48 45 44 46 49 51 51 53 55 54 53 51 49 46 47 45 44 44 43 43 42 44 43 42 42 42 43 44 43 43 44 44 46 44 42 39 40 39 38 40 38 38 40 39 39 44 42 43 42 43 44 42 42
55 54 54 51 49 48 46 43 41 41 40 40 39 38 39 42 49 52 52 54 52 52 53 53 53 54 55 55 55 55 52 50 46 42 42 42 42 43 44 48 51 51 51 51 51 51 49 48 48 47 43 43 46 45 44 42 45 46 43 43 44 44 44 43 42 45 45 41 41 40 40 41 40 38 39 40 40 42 42 41 42 43 43 42 42
53 51 50 48 46 44 42 40 40 39 38 39 37 38 38 39 44 51 53 54 54 51 50 51 51 50 51 51 51 52 51 50 46 45 44 41 40 40 40 40 41 44 46 47 46 48 49 47 47 49 48 47 48 49 49 47 46 47 49 47 45 44 44 43 43 42 46 43 42 42 41 43 42 40 40 40 40 41 41 41 41 42 42 42 42
50 48 46 45 43 41 39 37 36 36 36 37 36 37 37 37 38 46 53 55 54 51 52 52 52 51 50 50 53 54 51 53 51 51 50 46 43 42 41 41 41 40 40 42 45 47 50 47 46 48 50 50 49 49 50 49 51 48 48 46 46 46 45 44 44 44 46 44 42 42 41 43 42 41 41 42 42 41 42 42 41 41 42 42 41
49 47 44 43 41 40 38 36 35 35 35 37 36 36 36 37 39 45 52 55 53 53 52 52 53 53 54 54 52 50 48 46 46 47 51 52 50 49 49 50 49 45 40 40 40 43 46 48 48 44 48 51 48 50 51 52 50 48 47 47 47 46 45 45 45 46 47 48 43 43 43 44 44 42 41 42 43 42 42 42 41 41 41 41 41
49 47 46 43 42 41 38 36 34 33 35 36 35 35 36 37 41 47 52 54 53 54 55 55 56 55 54 53 51 48 44 42 42 41 47 51 53 53 52 53 54 53 54 53 51 48 47 48 48 47 47 49 50 50 51 54 53 53 51 49 49 49 48 48 48 48 48 50 45 45 43 45 45 42 42 42 45 42 42 41 41 41 41 41 40
51 50 49 47 45 43 41 37 34 32 33 35 35 35 36 38 42 47 48 51 52 54 51 50 52 54 54 50 45 41 39 38 39 39 44 53 54 54 54 54 55 54 54 51 44 45 48 50 50 50 51 50 45 47 46 46 48 49 50 50 50 49 49 49 48 47 47 49 49 46 44 44 45 44 44 45 44 42 43 42 41 41 41 41 40
49 49 49 48 46 43 41 38 34 32 33 35 35 36 38 39 43 46 45 44 48 50 45 43 43 45 44 42 40 38 37 36 37 37 40 45 46 46 48 49 51 53 50 47 44 42 42 42 42 43 44 45 44 43 42 42 44 45 47 48 48 47 46 46 47 46 47 47 47 49 47 46 48 47 48 49 46 43 42 42 41 41 41 40 40
48 48 48 48 47 43 40 37 34 32 33 36 35 36 38 39 41 42 41 41 41 46 45 42 40 41 42 45 43 37 37 38 36 36 37 40 41 42 43 44 44 49 47 44 42 43 41 40 40 41 42 43 45 47 47 45 44 43 46 48 48 46 47 45 46 46 47 47 47 49 46 48 49 49 48 48 46 44 44 42 40 41 41 40 39
47 48 48 49 48 46 42 39 39 34 34 37 36 35 36 37 38 35 36 37 39 40 44 43 40 38 37 39 41 40 38 37 35 36 36 38 39 41 43 41 41 42 44 42 41 41 42 41 40 44 43 45 50 52 53 49 47 48 48 49 49 47 48 46 47 48 48 47 48 51 48 47 47 48 47 45 45 46 42 41 39 39 40 39 38